Вернуться в каталог

THORAD AGENA D DEB

АктивенPO
NORAD 4971·DEBRIS·🇺🇸 United States

Запущен Apr 8, 1970 с Vandenberg Space Force Base

Loading…

Ближайшие Пролёты (ближайшие 24 часа)

TLE

СвежийSource: Space-Track

Эпоха: Sep 13, 2026, 07:52 UTC

1 04971U 70025GR  26256.32782973  .00000515  00000-0  17663-2 0  9993
2 04971  99.9274 170.2230 0342426 355.6604 124.8915 12.84852470639007

Отслеживайте THORAD AGENA D DEB в реальном времени с AllMySat

Download on the App Store